Вернуться в каталог

SL-12 R/B(2)

АктивенMEO
NORAD 33471·ROCKET BODY·🇷🇺 Russia

Запущен Dec 25, 2008 с Baikonur Cosmodrome

Loading…

Ближайшие Пролёты (ближайшие 24 часа)

TLE

СвежийSource: Space-Track

Эпоха: Sep 9, 2026, 05:30 UTC

1 33471U 08067F   26252.22927872  .00000021  00000-0  00000+0 0  9997
2 33471  64.8731  66.0631 0004118 347.3731  10.6078  2.13248914137886

Отслеживайте SL-12 R/B(2) в реальном времени с AllMySat

Download on the App Store